417  
ASUS44 KHUN 020510  
RWRHUN  
 
WEATHER ROUNDUP FOR THE TENNESSEE VALLEY  
NATIONAL WEATHER SERVICE HUNTSVILLE AL  
1100 PM CST THU DEC 01 2022  
 
ALZ001>004-020600-  
NORTHWEST ALABAMA  
 
CITY SKY/WX TMP DP RH WIND PRES REMARKS
 
BANKHEAD NF N/A 36 23 59 E1 N/A  
SHOALS AIRPORT PTCLDY 36 29 75 CALM 30.37R  

 
 
ALZ005>007-016-020600-  
NORTH CENTRAL ALABAMA  
 
CITY SKY/WX TMP DP RH WIND PRES REMARKS
 
DECATUR AP CLEAR 34 29 82 SE3 30.38S  
HUNTSVILLE AP PTCLDY 36 29 75 CALM 30.37S  
HUN NWS/UAH N/A 42 26 52 SE2 N/A  
MERIDIANVILLE CLEAR 38 26 63 CALM 30.38S  
VINEMONT AP FAIR 43 25 49 SE6 30.38S  

 
 
ALZ008>010-020600-  
NORTHEAST ALABAMA  
 
CITY SKY/WX TMP DP RH WIND PRES REMARKS
 
ALBERTVILLE CLEAR 41 25 52 SE6 30.38F  
FORT PAYNE PTCLDY 47 23 39 SW7 30.39S  
SCOTTSBORO AP PTCLDY 34 28 80 CALM 30.41S  

 
 
TNZ076-096-097-020600-  
SOUTHEASTERN MIDDLE TENNESSEE  
 
CITY SKY/WX TMP DP RH WIND PRES REMARKS
 
FAYETTEVILLE CLEAR 37 25 60 S3 30.38S  
TULLAHOMA CLEAR 30 23 74 CALM 30.36R  
WINCHESTER CLEAR 45 21 39 S8 30.36R  

 
   
..SURROUNDING SITES
 
 
 
CITY SKY/WX TMP DP RH WIND PRES REMARKS
 
ATLANTA MOCLDY 44 26 49 SE6 30.43F  
ANNISTON CLEAR 44 28 53 NE6 30.42R  
BIRMINGHAM PTCLDY 46 26 45 E6 30.41S  
CHATTANOOGA PTCLDY 33 29 85 CALM 30.43F  
CORINTH MOCLDY 37 32 81 SE5 30.36S WCI 34  
DALTON PTCLDY 33 29 86 SW3 30.42F  
GADSDEN CLEAR 39 30 70 E6 30.42S WCI 35  
GOLDEN TRNGL CLEAR 41 31 67 SE8 30.35F  
HALEYVILLE FAIR 42 24 49 SE3 30.38F  
JACKSON TN CLOUDY 44 23 43 S6 30.33F  
MEMPHIS MOCLDY 47 24 40 S6 30.31F  
NASHVILLE MOCLDY 35 26 69 CALM 30.38R  
ROME PTCLDY 35 30 82 CALM 30.43S  
SAVANNAH MOCLDY 34 32 93 CALM 30.36F  
SELMER MOCLDY 41 25 52 SE8 30.35S  
TUPELO PTCLDY 41 30 65 N3 30.37S  
TUSCALOOSA CLEAR 41 33 73 CALM 30.39S  

 
 
 
 
CLICK HERE TO GO TO PREVIOUS BULLETINS.

The Nexlab AL Page
The Nexlab TN Page Main Text Page